Find Kuiper-00253

NORAD ID: 68584 Int'l Des: 2026-072 Owner: KUIP Country: US Constellation: kuiper operational
LEOCIRCULAR

Live Position

Loading 3D Globe...

About Kuiper-00253

Description loading...

Upcoming Passes

Passes for default location (London). Set your location on the main map for personalized predictions.

Altitude History

Loading altitude history...

Two-Line Element Set

1 68584U 26072M 26108.53815127 .00021816 00000-0 59281-3 0 9993
2 68584 51.8706 105.3917 0005376 149.1443 210.9860 15.37485637 2202
Epoch: Apr 18, 2026 • Age: 60 hours

Current Status

Altitude 453.9 km
Velocity 7.65 km/s
Sub-Earth Point 41.30°N, 10.03°E
Launch Date Apr 4, 2026
Age 17 days
Type internet

Technical Details

Classification Payload
Mass 490.00 kg
Dry Mass 490.00 kg
Total Mass 490.00 kg
Length 1.80 m
Diameter 0.70 m
Span 5.00 m
Shape Box + 2 pan
Manufacturer KUIP
Bus Type Kuiper
Phase Status In Orbit
Owner/State KUIP/US

Most Searched